This is the latest recevied weather packets stored in our database for station/object SP1BMW-13. If no packets are shown the sender has not sent any weather packets the latest 10 day(s).
| Time | Temp. | Humidity | Pressure | Rain* | Wind** | Luminosity | Snow |
|---|---|---|---|---|---|---|---|
| 1788105638 | 25.56° C | 49% | 1008.5 hPa | 0 mm | 0.89 m/s, 219° | 157 W/m² | - |
| 1788105578 | 25.56° C | 49% | 1008.5 hPa | 0 mm | 1.34 m/s, 113° | 163 W/m² | - |
| 1788105518 | 25.56° C | 49% | 1008.6 hPa | 0 mm | 1.34 m/s, 256° | 166 W/m² | - |
| 1788105458 | 25.56° C | 49% | 1008.5 hPa | 0 mm | 2.68 m/s, 284° | 168 W/m² | - |
| 1788105398 | 25.56° C | 49% | 1008.5 hPa | 0 mm | 1.34 m/s, 171° | 170 W/m² | - |
| 1788105338 | 25.56° C | 49% | 1008.4 hPa | 0 mm | 2.24 m/s, 182° | 170 W/m² | - |
| 1788105278 | 25.56° C | 49% | 1008.5 hPa | 0 mm | 2.24 m/s, 205° | 170 W/m² | - |
| 1788105218 | 25.56° C | 49% | 1008.5 hPa | 0 mm | 2.68 m/s, 204° | 171 W/m² | - |
| 1788105161 | 25.56° C | 49% | 1008.4 hPa | 0 mm | 0.45 m/s, 152° | 174 W/m² | - |
| 1788105100 | 25.56° C | 48% | 1008.6 hPa | 0 mm | 3.13 m/s, 196° | 175 W/m² | - |
| 1788105038 | 25.56° C | 49% | 1008.5 hPa | 0 mm | 1.34 m/s, 250° | 178 W/m² | - |
| 1788104981 | 25.56° C | 49% | 1008.5 hPa | 0 mm | 1.34 m/s, 270° | 180 W/m² | - |
| 1788104927 | 25.56° C | 48% | 1008.3 hPa | 0 mm | 2.24 m/s, 306° | 182 W/m² | - |
| 1788104858 | 26.11° C | 48% | 1008.4 hPa | 0 mm | 3.58 m/s, 217° | 185 W/m² | - |
| 1788104798 | 26.11° C | 48% | 1008.5 hPa | 0 mm | 1.79 m/s, 153° | 187 W/m² | - |
| 1788104738 | 26.11° C | 48% | 1008.3 hPa | 0 mm | 2.24 m/s, 264° | 190 W/m² | - |
| 1788104678 | 26.11° C | 48% | 1008.5 hPa | 0 mm | 1.34 m/s, 354° | 194 W/m² | - |
| 1788104618 | 26.11° C | 48% | 1008.5 hPa | 0 mm | 1.79 m/s, 232° | 198 W/m² | - |
| 1788104558 | 26.11° C | 49% | 1008.5 hPa | 0 mm | 1.79 m/s, 209° | 200 W/m² | - |
| 1788104501 | 26.11° C | 48% | 1008.5 hPa | 0 mm | 0.89 m/s, 262° | 205 W/m² | - |
| 1788104440 | 26.11° C | 48% | 1008.6 hPa | 0 mm | 1.79 m/s, 282° | 214 W/m² | - |
| 1788104378 | 26.11° C | 48% | 1008.4 hPa | 0 mm | 2.24 m/s, 280° | 228 W/m² | - |
| 1788104320 | 26.11° C | 48% | 1008.3 hPa | 0 mm | 2.24 m/s, 236° | 240 W/m² | - |
| 1788104259 | 26.11° C | 48% | 1008.6 hPa | 0 mm | 0.89 m/s, 154° | 251 W/m² | - |
| 1788104201 | 26.11° C | 48% | 1008.4 hPa | 0 mm | 0.89 m/s, 86° | 254 W/m² | - |
* Rain latest hour (hover to see other rain measurements)
** Current wind speed in m/s (hover to see current wind gust speed)